Location: Montague
(41.3030°N, 74.7940°W)
Time: 11:00:17
(UTC-04:00)

Daily predictions for brighter satellites

Satellite Brightness Start Highest point End
(mag) Time Altitude Azimuth Time Altitude Azimuth Time Altitude Azimuth
Cosmos 2219 3.8 20:02:57 10° NNW 20:08:29 62° WSW 20:14:00 10° S
EO 1 Delta rocket 4.4 20:06:18 10° NNE 20:10:42 39° E 20:15:36 10° SSE
CZ-4B DEB 2.8 20:07:30 10° SSE 20:10:45 67° ENE 20:14:02 10° N
DELTA 2 R/B (1) 3.6 20:08:05 10° W 20:13:40 76° S 20:19:13 10° E
Meteor 2-21 Rocket 4.5 20:09:01 10° S 20:15:10 71° E 20:21:21 10° NNE
Okean 2 3.4 20:16:40 10° N 20:20:50 64° E 20:24:56 10° SSE
Cosmos 1975 4.0 20:18:27 10° SE 20:21:44 24° E 20:25:01 10° NE
Cosmos 968 Rocket 4.4 20:18:02 10° NNW 20:23:01 50° WSW 20:27:54 10° S
Meteor 2-4 Rocket 4.0 20:17:10 10° NNW 20:23:01 82° W 20:28:57 10° S
NOSS 2-1 (D) 3.7 20:20:22 10° SW 20:24:13 69° NW 20:28:37 10° NNE
Cosmos 1697 Rocket 4.0 20:20:34 10° SE 20:24:20 19° E 20:28:07 10° ENE
Helios 1A 4.3 20:20:25 10° S 20:24:23 43° W 20:28:24 10° NNW
NOSS 2-1 (C) 3.7 20:21:22 10° SW 20:25:14 70° NW 20:29:40 10° NNE
Cosmos 2123 Rocket 4.1 20:19:18 10° N 20:25:26 59° E 20:31:30 10° SSE
Cosmos 2278 3.8 20:20:42 10° S 20:26:10 54° ESE 20:31:44 10° NNE
Meteor 2-15 4.4 20:22:39 10° N 20:28:45 77° E 20:34:47 10° SSE
Lacrosse 5 rocket 2.0 20:27:26 10° NNW 20:30:55 34° NE 20:33:40 14° E
H-2A R/B 3.8 20:29:22 11° E 20:31:27 15° ENE 20:33:50 10° NNE
ERS-1 Rocket 3.7 20:27:51 10° SE 20:32:20 34° ENE 20:36:49 10° N
ALOS 2.3 20:28:05 10° SSE 20:32:45 87° WSW 20:37:28 10° NNW
Meteor 2-14 Rocket 4.5 20:26:49 10° S 20:32:58 86° E 20:39:10 10° N
Cosmos 1892 Rocket 3.8 20:28:58 10° N 20:33:28 79° W 20:37:56 10° S
Meteor 2-15 Rocket 4.4 20:27:55 10° N 20:34:01 72° E 20:40:04 10° SSE
Cosmos 1626 Rocket 4.2 20:30:31 10° N 20:34:37 36° ENE 20:38:28 11° SE
Cosmos 1025 Rocket 4.2 20:30:33 10° NNW 20:34:44 45° W 20:38:51 10° SSW
Cosmos 1455 Rocket 3.0 20:34:36 10° S 20:38:55 82° E 20:43:17 10° N
H-2A R/B 2.8 20:35:11 10° SSE 20:39:02 87° WSW 20:42:59 10° NNW
Cosmos 2369 3.7 20:33:54 10° S 20:39:27 62° ESE 20:45:05 10° NNE
NOSS 2-1 (E) 4.3 20:37:27 10° SW 20:41:18 53° NW 20:45:46 10° NNE
Cosmos 1461 2.8 20:37:37 10° NNW 20:41:41 65° NE 20:44:43 16° SE
Cosmos 1602 Rocket 3.9 20:38:45 10° N 20:43:03 45° ENE 20:46:53 12° SSE
Cosmos 1980 Rocket 3.6 20:45:16 16° ESE 20:46:28 17° E 20:50:00 10° ENE
Cosmos 1939 Rocket 3.5 20:51:41 19° SE 20:54:09 39° ENE 20:58:03 10° N
CZ-2D R/B 4.3 20:52:08 10° S 20:55:51 47° W 20:59:38 10° NNW
Resurs 01 Rocket 4.2 20:53:03 10° SW 20:56:25 21° W 20:59:48 10° NW
Cosmos 1934 Rocket 4.4 20:50:50 10° SSW 20:56:53 66° W 21:03:06 10° N
Lacrosse 5 3.0 20:52:35 10° NNW 20:57:07 32° NNE 21:00:15 17° E
USA 215 4.5 20:57:33 10° E 21:03:06 31° NNE 21:08:41 10° NW
Cosmos 2084 4.2 21:00:17 10° NNW 21:04:03 36° NE 21:05:45 25° E
SPOT 5 3.8 21:02:06 23° ESE 21:04:19 32° ENE 21:08:38 10° N
Cosmos 1447 Rocket 4.5 20:59:39 10° N 21:05:58 72° E 21:11:56 12° SSE
Cosmos 220 Rocket 3.9 21:03:21 10° NNW 21:07:34 70° ENE 21:09:49 27° SSE
Cosmos 1346 Rocket 4.2 21:06:59 10° NNW 21:10:40 38° W 21:14:22 10° SSW
Cosmos 2227 Rocket 2.5 21:07:55 10° NNW 21:13:33 66° WSW 21:18:21 14° S
USA 186 3.7 21:11:08 10° SSW 21:13:51 27° W 21:16:26 10° NW
Tiangong 1 1.3 21:12:31 10° W 21:15:36 63° N 21:16:25 42° ENE
OTV 4 1.6 21:14:09 10° WSW 21:16:45 29° SSW 21:16:45 29° SSW
Cosmos 1500 3.0 21:18:30 23° S 21:20:42 75° E 21:24:28 10° NNE
Cosmos 1656 3.5 21:15:10 10° SSW 21:20:47 77° ESE 21:26:22 10° NNE
NOSS 3-4 (A) 4.5 21:14:47 10° NW 21:21:36 52° WSW 21:28:01 13° S
RESURS DK-1 3.2 21:17:51 10° N 21:21:40 34° ENE 21:22:21 32° E
NOSS 3-4 (C) 4.5 21:14:54 10° NW 21:21:43 52° WSW 21:28:06 13° S
BREEZE-M TANK 3.2 21:12:11 10° WNW 21:23:17 85° NNE 21:24:54 36° ESE
Cosmos 2016 Rocket 4.3 21:23:05 29° SE 21:25:34 41° E 21:31:18 10° NNE
Cosmos 2298 Rocket 4.0 21:20:30 10° NNW 21:25:50 79° ENE 21:28:25 31° SSE
Cosmos 2082 4.3 21:21:28 10° NNW 21:26:56 54° WSW 21:31:16 16° S
CZ-4 DEB 3.7 21:26:40 25° SSW 21:28:05 43° W 21:31:08 10° NNW
Cosmos 2297 Rocket 2.4 21:23:36 10° NNW 21:29:14 68° WSW 21:32:48 23° S
Cosmos 1340 3.4 21:31:45 10° N 21:34:56 38° ENE 21:34:56 38° ENE
Envisat 3.0 21:34:13 27° S 21:37:04 79° WSW 21:42:12 10° NNW
Cosmos 2173 Rocket 3.9 21:32:57 15° S 21:38:17 74° E 21:44:38 10° N
H-2A R/B 3.5 21:39:12 19° ENE 21:39:13 19° ENE 21:42:41 10° NNE
Milstar 3 Cent rocket 4.3 21:21:16 10° WSW 21:40:36 47° SSW 21:45:56 30° SE
Cosmos 1726 Rocket 4.1 21:42:19 39° ENE 21:42:19 39° ENE 21:45:49 10° NNE
Cosmos 1937 Rocket 3.4 21:36:54 10° NNW 21:42:11 72° ENE 21:43:40 47° SE
Terra 3.7 21:44:43 17° ENE 21:44:43 17° ENE 21:47:19 10° NNE
ASTEX 1 3.4 21:40:42 10° NNE 21:45:39 59° E 21:46:26 52° SE
Cosmos 2098 Rocket 4.3 21:45:59 38° SE 21:48:01 49° E 21:53:53 10° NNE
Cosmos 2100 Rocket 4.0 21:42:26 10° S 21:48:40 85° W 21:54:57 10° N
OAO 2 Rocket 3.9 21:43:59 10° WSW 21:48:33 41° S 21:48:33 41° S
YAOGAN 6 2.9 21:49:35 57° NNE 21:49:35 57° NNE 21:52:46 10° N
Cosmos 2061 Rocket 3.9 21:44:13 16° S 21:49:28 88° E 21:55:46 10° N
Cosmos 2150 Rocket 4.1 21:47:32 10° NNW 21:52:40 69° WSW 21:54:22 41° S
Cosmos 1743 2.7 21:53:16 79° WSW 21:53:25 81° W 21:57:22 10° N
Tsikada Rocket 4.4 21:48:24 10° N 21:54:34 46° ENE 21:55:35 43° ESE
Cosmos 1825 Rocket 3.4 21:50:29 10° N 21:54:57 89° SW 21:55:22 73° S
MetOp-A 4.0 21:55:02 49° SSE 21:56:32 89° ENE 22:01:56 10° NNW
Cosmos 972 Rocket 4.5 21:50:48 10° NNW 21:56:43 81° WSW 21:59:20 38° S
SPOT 1/Viking Rocket 3.6 21:57:13 56° ESE 21:57:48 60° ENE 22:02:57 10° N
Cosmos 990 Rocket 3.9 21:52:47 10° NNW 21:58:03 73° ENE 21:58:46 63° ESE
DELTA 2 R/B (1) 3.7 21:54:31 10° W 21:59:55 53° SSW 22:00:24 52° S
USA 245 4.4 22:00:22 51° SE 22:01:59 74° ENE 22:08:21 10° N
Cosmos 1953 Rocket 3.5 21:59:25 10° N 22:03:44 81° NE 22:03:44 81° NE
CZ-4B R/B 4.1 21:59:44 10° NNE 22:03:04 39° NE 22:03:04 39° NE
H-2A R/B 2.7 22:06:31 42° SW 22:07:05 45° W 22:11:04 10° NNW
Cosmos 1697 Rocket 3.1 22:02:10 10° SW 22:07:45 61° WNW 22:13:21 10° NNE
Lacrosse 5 rocket 2.9 22:06:58 10° WNW 22:09:24 23° WSW 22:09:24 23° WSW
SL-16 R/B 3.9 22:15:31 19° NE 22:15:31 19° NE 22:17:23 10° NE
Cosmos 1842 4.4 22:10:59 10° N 22:13:33 39° N 22:13:33 39° N
NOAA 11 4.0 22:15:11 73° SE 22:15:39 81° ENE 22:21:09 10° NNW
Cosmos 1758 Rocket 4.0 22:18:38 10° NNW 22:22:20 60° NW 22:22:20 60° NW
Cosmos 1725 Rocket 3.8 22:22:45 68° SSE 22:23:34 81° E 22:29:50 10° N
Cosmos 1125 Rocket 4.0 22:18:48 10° N 22:23:14 47° NE 22:23:14 47° NE
Cosmos 1763 Rocket 3.4 22:24:17 75° W 22:24:31 77° WNW 22:29:37 10° NNE
Cosmos 1980 Rocket 2.5 22:26:51 28° SW 22:29:49 66° WNW 22:35:31 10° NNE
Meteor 1-15 Rocket 4.2 22:30:17 82° ESE 22:30:20 82° E 22:36:15 10° NNE
ARGOS 3.1 22:30:52 76° WSW 22:31:00 76° WSW 22:36:24 10° NNW
Lacrosse 5 2.6 22:35:22 10° NW 22:39:26 48° W 22:39:26 48° W
SPOT 5 4.4 22:41:21 28° WSW 22:42:19 30° W 22:46:37 10° NW
Cosmos 2058 Rocket 4.1 22:44:37 44° NW 22:44:37 44° NW 22:48:11 10° N
Cosmos 841 Rocket 3.9 22:45:04 57° WNW 22:45:15 58° WNW 22:50:25 10° NNE
USA 215 3.1 22:44:53 71° E 22:45:30 77° NE 22:52:03 10° NW
Meteor 2-17 Rocket 4.5 22:48:05 69° NE 22:48:05 69° NE 22:53:26 10° N
BREEZE-M DEB (TANK) 4.1 22:37:27 10° SW 22:49:08 76° SSW 22:49:08 76° SSW
Cosmos 2233 Rocket 4.0 22:51:56 72° NNE 22:51:56 72° NNE 22:57:32 10° N
Cosmos 2263 Rocket 3.1 22:54:06 10° NNW 22:58:15 41° NNE 22:58:15 41° NNE
Cosmos 2322 Rocket 3.2 23:03:22 39° NNE 23:03:22 39° NNE 23:06:51 10° NNE
H-2A R/B 3.3 23:19:52 37° NW 23:19:52 37° NW 23:23:06 10° NNW
BREEZE-M DEB (TANK) 3.8 23:05:21 10° WNW 23:18:46 75° NW 23:18:46 75° NW
Terra 3.4 23:23:37 32° NW 23:23:37 32° NW 23:26:18 10° NNW
